Home   Weather   Navi Mumbai   Past weeks

Flag for India Past Weather in Navi Mumbai, Maharashtra, India — Yesterday and Last 2 Weeks

Now
91 °F

Clear.


Feels Like: 89 °F
Forecast: 66 / 91 °F
Wind: 8 mph from Northwest

Location: Mumbai / Santacruz

Current Time: Feb 20, 2017 at 5:21:51 pm

Latest Report: Feb 20, 2017 at 5:00 pm


Visibility: 2 mi

Pressure: 29.77 "Hg

Humidity: 30%

Dew Point: 55 °F

Location of Navi MumbaiLocation

Past Weather in Navi Mumbai — Graph

°F

Navi Mumbai Temperature Yesterday

Maximum temperature yesterday: 97 °F (at 11:30 am)
Minimum temperature yesterday: 79 °F (at 6:00 am)
Average temperature yesterday: 87 °F

High & Low Weather Summary for the Past Weeks

 TemperatureHumidityPressure
High104 °F (Feb 18, 2:30 pm)83% (Feb 11, 2:30 am)30.09 "Hg (Feb 11, 2:30 am)
Low68 °F (Feb 7, 4:00 am)15% (Feb 18, 2:30 pm)29.77 "Hg (Feb 10, 3:30 pm)
Average82 °F46%29.94 "Hg
* Reported Feb 5 3:30 pm — Feb 20 4:00 pm, Navi Mumbai, Weather by CustomWeather, © 2017

Note: Actual official high and low records may vary slightly from our data, if they occured in-between our weather recording intervals... More about our weather records

Advertising

Navi Mumbai Weather History for the Previous 24 Hours

Scroll right to see more
 ConditionsComfort  
Time TempWeatherWind HumidityBarometerVisibility
4:00 pm
Mon, Feb 20
95 °FClear.14 mph28%29.77 "Hg2 mi
3:30 pm93 °FClear.15 mph28%29.77 "Hg2 mi
3:00 pm95 °FClear.14 mph28%29.80 "Hg2 mi
2:30 pm95 °FClear.12 mph32%29.80 "Hg2 mi
2:00 pm93 °FClear.14 mph41%29.83 "Hg2 mi
1:30 pm93 °FClear.12 mph41%29.83 "Hg2 mi
1:00 pm93 °FClear.10 mph39%29.86 "Hg2 mi
12:30 pm91 °FClear.14 mph49%29.86 "Hg2 mi
12:00 pm91 °FClear.9 mph44%29.89 "Hg2 mi
11:30 am93 °FClear.6 mph36%29.89 "Hg1 mi
11:00 am90 °FClear.9 mph43%29.92 "Hg1 mi
10:30 am90 °FClear.7 mph49%29.92 "Hg1 mi
10:00 am90 °FClear.No wind43%29.92 "Hg1 mi
9:30 am88 °FClear.5 mph49%29.92 "Hg1 mi
9:00 am82 °FClear.5 mph55%29.92 "Hg1 mi
8:30 am79 °FClear.5 mph65%29.89 "Hg1 mi
8:00 am79 °FClear.3 mph61%29.89 "Hg1 mi
7:30 am79 °FClear.5 mph58%29.89 "Hg1 mi
7:00 am79 °FClear.3 mph58%29.86 "Hg1 mi
6:30 am79 °FClear.No wind58%29.86 "Hg2 mi
6:00 am79 °FClear.No wind58%29.86 "Hg2 mi
5:30 am79 °FHaze.No wind58%29.86 "Hg2 mi
5:00 am79 °FHaze.No wind61%29.86 "Hg2 mi
4:30 am81 °FHaze.6 mph58%29.86 "Hg2 mi
4:00 am81 °FHaze.5 mph62%29.86 "Hg2 mi
3:30 am82 °FHaze.5 mph58%29.86 "Hg2 mi
3:00 am81 °FHaze.No wind62%29.86 "Hg2 mi
2:30 am81 °FHaze.3 mph66%29.86 "Hg2 mi
2:00 am81 °FClear.6 mph51%29.89 "Hg2 mi
1:30 am82 °FClear.3 mph42%29.89 "Hg2 mi
1:00 am84 °FClear.5 mph37%29.89 "Hg2 mi
12:30 am84 °FClear.5 mph35%29.89 "Hg2 mi
12:00 am84 °FClear.7 mph33%29.89 "Hg2 mi
11:30 pm
Sun, Feb 19
86 °FClear.6 mph33%29.89 "Hg2 mi
11:00 pm86 °FClear.3 mph31%29.92 "Hg2 mi
10:30 pm86 °FClear.5 mph35%29.92 "Hg2 mi
10:00 pm88 °FClear.6 mph33%29.92 "Hg2 mi
9:30 pm86 °FClear.3 mph38%29.92 "Hg2 mi
9:00 pm86 °FClear.3 mph38%29.92 "Hg2 mi
5:00 pm93 °FClear.12 mph26%29.86 "Hg3 mi
Weather by CustomWeather, © 2017

See weather overviewHow to use our weather pages